Hourly Weather Roundup
Issued by NWS Central Illinois

Home | Current Version | Previous Version | Text Only | Print | Product List | Glossary On
Versions: 1 2 3 4 5 6 7 8 9 10 11 12 13 14 15 16 17 18 19 20 21 22 23 24 25 26 27 28 29 30 31 32 33 34 35 36 37 38 39 40 41 42 43 44 45 46 47 48 49 50
375
NZUS43 KILX 230410
HWRILX

Area Weather Roundup
National Weather Service Lincoln IL
1100 PM CDT SUN OCT 22 2017

NOTE:  "FAIR" indicates few or no clouds below 12,000 feet, with
       no sigificant weather and/or obstructions to visibility.


CITY           SKY/WX    TMP DP  RH WIND       PRES   REMARKS
Bloomington    LGT RAIN  51  50  96 N13       30.00F
Champaign      RAIN      54  52  93 N12       29.97F FOG
Danville       RAIN      54  54  99 N7        29.95F
Decatur        LGT RAIN  52  52 100 N9        29.99F FOG
Effingham      HVY RAIN  54  54 100 N8        29.95F
Flora          LGT RAIN  56  55  95 N7        29.89S
Jacksonville   CLOUDY    51  49  95 NW9       30.03F
Lacon          CLOUDY    51  50  99 N5        30.02F
Lawrenceville  LGT RAIN  65  65 100 SE5       29.93F
Litchfield     RAIN      51  50  98 NW12      29.99S
$$


CITY           SKY/WX    TMP DP  RH WIND       PRES   REMARKS
Lincoln        CLOUDY    52  52  99 NW5       30.01S
Macomb         CLOUDY    51  49  95 N3        30.06F
Mattoon        RAIN      53  53 100 VRB5      29.94F FOG
Mt Carmel AP   RAIN      63  63  98 E3        29.93F
Olney-Noble AP RAIN      56  54  92 CALM      29.93F
Paris AP       CLOUDY    55  55 100 N6        29.96F
Peoria         CLOUDY    51  50  96 N5        30.02F
Pontiac        DRIZZLE   52  51  98 N6        30.01F
Rantoul        HVY RAIN  55  54  97 N13       29.97F
Robinson       LGT RAIN  58  58 100 NE3       29.94F
Springfield    LGT RAIN  53  52  96 N7        30.01F FOG
Taylorville    DRIZZLE   51  51  99 N10       29.98F
$$

...REGIONAL REPORTS...


CITY           SKY/WX    TMP DP  RH WIND       PRES   REMARKS
Chicago O`Hare LGT RAIN  52  49  89 N9        30.01F
Kankakee       RAIN      53  52  97 N8        30.01F
Moline         CLOUDY    51  48  89 CALM      30.04S
Mount Sterling CLOUDY    49  48  95 CALM      30.03F
Mount Vernon   RAIN      54  53  97 N7        29.92F
Pittsfield     CLOUDY    51  48  89 N5        30.05F
Quincy         CLOUDY    51  50  96 CALM      30.05F
Rockford       LGT RAIN  50  48  93 N3        30.05F
$$


CITY           SKY/WX    TMP DP  RH WIND       PRES   REMARKS
Burlington     CLOUDY    50  50 100 CALM      30.04S
Cedar Rapids   PTCLDY    46  44  93 CALM      30.03F
Des Moines     PTCLDY    49  41  74 S8        30.01F
Kirksville     CLOUDY    48  48 100 W5        30.06F
Ottumwa        PTCLDY    48  46  93 S5        30.04F
St Louis       LGT RAIN  52  52 100 NW9       30.02F FOG
$$


CITY           SKY/WX    TMP DP  RH WIND       PRES   REMARKS
Terre Haute    CLOUDY    61  59  93 CALM      29.95F
Evansville     RAIN      65  64  97 E3        29.91F
Indianapolis   CLOUDY    67  55  65 SE12      29.96F
Lafayette      CLOUDY    60  58  92 N7        29.96F
Madison        CLOUDY    48  46  93 CALM      30.03F
Milwaukee      LGT RAIN  52  49  89 W3        30.04S
$$






USA.gov is the U.S. government's official web portal to all federal, state and local government web resources and services.